IA5KRO-13 Weather Reports


time (UTC)temp
F
wind
direction
speed
knots
gust
knots
rain 1hr
in
rain 24hr
in
rain mn
in
humidity
%
barometer
mb
20260505083509 66 260 1.7 1.7 0.00 0.11 0.11 83 1020.0
20260505083024 66 260 1.7 1.7 0.00 0.11 0.11 83 1020.0
20260505082509 66 260 1.7 1.7 0.00 0.11 0.11 83 1020.0
20260505082013 66 260 1.7 1.7 0.00 0.11 0.11 83 1020.0
20260505081513 66 260 1.7 1.7 0.00 0.11 0.11 83 1020.0
20260505081013 66 311 3.5 8.7 0.00 0.11 0.11 82 1020.0
20260505080508 66 319 2.6 7.0 0.00 0.11 0.11 86 1020.0
20260505080031 66 270 3.5 7.8 0.00 0.11 0.11 85 1020.0
20260505075509 66 290 7.0 7.0 0.00 0.11 0.11 84 1019.6
20260505075013 66 329 9.6 14.8 0.00 0.11 0.11 84 1019.6
20260505074512 66 290 3.5 5.2 0.00 0.11 0.11 83 1019.6
20260505074012 66 278 7.0 7.0 0.00 0.11 0.11 84 1019.6
20260505073510 66 282 4.3 4.3 0.00 0.11 0.11 83 1020.0
20260505073022 66 214 6.1 7.8 0.00 0.11 0.11 85 1020.0
20260505072508 66 268 9.6 9.6 0.00 0.11 0.11 86 1020.0
20260505072012 66 326 5.2 9.6 0.00 0.11 0.11 86 1020.0
20260505071513 66 262 7.0 7.0 0.00 0.11 0.11 84 1020.0
20260505071012 66 298 11.3 13.9 0.00 0.11 0.11 83 1020.0
20260505070509 66 336 3.5 6.1 0.00 0.11 0.11 86 1020.0
20260505070031 64 266 7.8 17.4 0.00 0.11 0.11 84 1020.0
20260505065509 64 270 10.4 13.0 0.00 0.11 0.11 89 1019.6
20260505065014 64 205 6.1 12.2 0.00 0.11 0.11 90 1019.6
20260505064512 64 256 7.0 13.0 0.00 0.11 0.11 87 1019.6
20260505064013 64 269 4.3 4.3 0.00 0.11 0.11 89 1019.6
20260505063509 64 315 13.9 13.9 0.00 0.11 0.11 87 1019.6
20260505063021 64 333 4.3 4.3 0.00 0.11 0.11 92 1019.6
20260505062509 64 301 5.2 7.0 0.00 0.11 0.11 93 1019.6
20260505062013 64 270 11.3 13.9 0.00 0.11 0.11 90 1019.6
20260505061513 64 349 5.2 7.8 0.00 0.11 0.11 93 1019.6
20260505061012 64 253 10.4 10.4 0.00 0.11 0.11 93 1020.0
20260505060509 64 274 3.5 13.0 0.00 0.11 0.11 94 1020.0
20260505060032 64 342 7.8 7.8 0.00 0.11 0.11 94 1020.0
20260505055508 64 283 5.2 6.1 0.00 0.11 0.11 93 1020.0
20260505055011 64 118 6.1 6.1 0.00 0.11 0.11 91 1020.0
20260505054512 63 290 4.3 7.8 0.00 0.11 0.11 94 1020.0
20260505054012 63 176 6.1 7.8 0.00 0.11 0.11 94 1020.0
20260505053509 63 247 0.9 0.9 0.00 0.11 0.11 95 1020.0
20260505053022 63 195 1.7 4.3 0.00 0.11 0.11 95 1020.0
20260505052509 63 314 5.2 5.2 0.00 0.11 0.11 94 1020.0
20260505052012 63 181 1.7 3.5 0.00 0.11 0.11 94 1020.0
20260505051512 63 305 7.0 7.0 0.00 0.11 0.11 95 1020.0
20260505051012 63 154 2.6 6.1 0.00 0.11 0.11 95 1020.0
20260505050509 63 304 10.4 14.8 0.00 0.11 0.11 94 1020.0
20260505041512 63 257 2.6 2.6 0.01 0.11 0.11 98 1019.6
20260505041012 63 307 3.5 3.5 0.01 0.11 0.11 99 1019.6
20260505040509 63 169 3.5 7.0 0.00 0.11 0.11 98 1019.6
20260505040032 63 305 6.1 13.9 0.00 0.11 0.11 97 1019.6
20260505035508 63 289 4.3 10.4 0.01 0.11 0.11 99 1019.3
20260505035011 63 263 4.3 6.1 0.01 0.11 0.11 99 1019.3
20260505034512 63 297 3.5 6.1 0.00 0.10 0.10 99 1019.6
20260505034013 63 119 3.5 3.5 0.01 0.10 0.10 99 1019.6
20260505033508 63 139 6.1 6.1 0.01 0.10 0.10 99 1020.0
20260505033022 61 111 2.6 5.2 0.00 0.10 0.10 99 1020.0
20260505032509 61 278 5.2 11.3 0.01 0.10 0.10 99 1020.0
20260505032012 61 211 3.5 5.2 0.01 0.10 0.10 99 1020.0
20260505031512 61 198 4.3 4.3 0.01 0.10 0.10 99 1020.0
20260505031013 61 281 3.5 7.8 0.01 0.10 0.10 99 1020.0
20260505030509 61 180 5.2 9.6 0.01 0.10 0.10 99 1020.0
20260505030031 61 246 0.9 3.5 0.00 0.10 0.10 99 1020.0
20260505025508 61 145 1.7 1.7 0.01 0.10 0.10 99 1020.0
20260505025012 61 236 0.9 3.5 0.01 0.10 0.10 99 1020.0
20260505024512 61 102 1.7 1.7 0.00 0.10 0.10 99 1020.0
20260505024012 61 229 1.7 2.6 0.00 0.10 0.10 99 1020.0
20260505023508 61 331 4.3 5.2 0.00 0.10 0.10 99 1020.0
20260505023021 61 134 2.6 2.6 0.00 0.10 0.10 99 1020.0
20260505022509 61 233 1.7 5.2 0.01 0.10 0.10 99 1020.0
20260505022012 61 28 7.0 8.7 0.01 0.10 0.10 99 1020.3
20260505021512 61 334 3.5 7.8 0.00 0.09 0.09 99 1020.3
20260505021012 61 310 1.7 1.7 0.00 0.09 0.09 99 1020.7
20260505020509 61 171 1.7 1.7 0.00 0.09 0.09 99 1020.7
20260505020030 61 175 3.5 5.2 0.01 0.09 0.09 99 1020.7
20260505015509 61 257 2.6 2.6 0.01 0.09 0.09 99 1020.7
20260505015012 61 171 0.9 1.7 0.00 0.09 0.09 99 1020.7
20260505014512 61 102 2.6 2.6 0.01 0.09 0.09 99 1020.7
20260505014011 61 287 2.6 7.8 0.03 0.09 0.09 99 1020.7
20260505013509 61 227 0.9 1.7 0.03 0.09 0.09 99 1020.7
20260505013022 61 274 6.1 6.1 0.05 0.09 0.09 99 1020.7
20260505012508 61 270 2.6 6.1 0.03 0.09 0.09 99 1020.7
20260505012012 61 274 1.7 1.7 0.00 0.08 0.08 99 1021.0
20260505011512 61 40 1.7 2.6 0.00 0.08 0.08 99 1021.0
20260505011012 61 181 1.7 2.6 0.01 0.08 0.08 99 1021.0
20260505010509 61 170 0.9 3.5 0.03 0.08 0.08 99 1021.0
20260505010030 61 129 3.5 7.8 0.01 0.08 0.08 99 1021.0
20260505005509 61 214 1.7 4.3 0.03 0.08 0.08 99 1021.0
20260505005012 61 215 1.7 7.0 0.03 0.08 0.08 99 1021.0
20260505004512 61 62 5.2 7.8 0.00 0.07 0.07 99 1021.0
20260505004012 61 293 5.2 7.8 0.00 0.07 0.07 99 1021.0
20260505003509 61 158 1.7 3.5 0.00 0.07 0.07 99 1021.7
20260505003022 61 202 0.9 2.6 0.01 0.07 0.07 99 1021.7
20260505002509 61 270 7.8 7.8 0.01 0.07 0.07 99 1021.7
20260505002012 61 266 7.8 8.7 0.01 0.07 0.07 99 1021.7
20260505001512 61 309 1.7 1.7 0.03 0.07 0.07 99 1021.7
20260505001012 61 241 3.5 7.8 0.04 0.07 0.07 99 1021.7
20260505000509 61 288 2.6 4.3 0.03 0.06 0.06 99 1021.7
20260505000035 61 193 2.6 12.2 0.03 0.06 0.06 99 1022.0
20260504235510 61 32 1.7 1.7 0.05 0.06 0.06 99 1022.0
20260504235012 61 167 1.7 4.3 0.06 0.06 0.06 99 1022.0
20260504234512 61 149 7.0 9.6 0.05 0.05 0.05 99 1022.0
20260504234013 61 96 1.7 8.7 0.04 0.05 0.05 99 1022.0
20260504233508 61 122 1.7 1.7 0.03 0.04 0.04 99 1022.7
20260504233023 61 136 1.7 2.6 0.03 0.04 0.04 99 1022.7
20260504232510 61 271 3.5 7.8 0.04 0.04 0.04 99 1022.7
20260504232013 61 66 6.1 8.7 0.04 0.03 0.03 99 1022.7
20260504231511 61 207 2.6 6.1 0.03 0.03 0.03 99 1022.7
20260504231012 61 287 2.6 2.6 0.01 0.03 0.03 99 1022.7
20260504230508 61 224 1.7 3.5 0.01 0.03 0.03 99 1022.7
20260504230033 61 278 2.6 4.3 0.03 0.03 0.03 98 1022.7
20260504225509 61 99 1.7 4.3 0.03 0.02 0.02 99 1022.7
20260504225012 61 90 1.7 3.5 0.03 0.02 0.02 99 1022.7
20260504224512 61 155 1.7 2.6 0.03 0.02 0.02 99 1022.7
20260504224012 61 156 1.7 3.5 0.03 0.02 0.02 98 1022.7
20260504223509 61 269 4.3 5.2 0.03 0.01 0.01 98 1023.0
20260504223023 61 106 1.7 3.5 0.04 0.01 0.01 98 1023.0
20260504222509 61 339 2.6 6.1 0.03 0.01 0.01 98 1023.0
20260504222013 61 344 1.7 3.5 0.03 0.01 0.01 98 1023.0
20260504221512 61 200 5.2 6.1 0.03 0.00 0.00 98 1023.0
20260504221012 61 190 1.7 2.6 0.04 0.00 0.00 98 1023.0
20260504220508 61 221 3.5 5.2 0.05 0.00 0.00 97 1023.0
20260504220032 61 198 2.6 5.2 0.05 0.00 0.00 97 1023.0
20260504215509 61 207 1.7 5.2 0.04 0.01 0.01 97 1023.0
20260504215012 61 210 3.5 5.2 0.03 0.01 0.01 96 1023.0
20260504214512 61 292 1.7 1.7 0.03 0.01 0.01 96 1023.4
20260504214012 61 315 3.5 3.5 0.01 0.00 0.00 97 1023.4
20260504213509 61 279 1.7 4.3 0.00 0.00 0.00 94 1023.4
20260504213022 61 171 0.9 1.7 0.00 0.00 0.00 93 1023.4
20260504212509 61 275 1.7 2.6 0.00 0.00 0.00 93 1023.4
20260504212013 61 162 3.5 5.2 0.01 0.00 0.00 93 1023.7
20260504211513 63 200 2.6 3.5 0.01 0.00 0.00 93 1023.7
20260504211012 63 337 2.6 3.5 0.00 0.00 0.00 93 1024.4
20260504210509 63 234 4.3 4.3 0.00 0.00 0.00 90 1024.4
20260504210030 63 302 3.5 7.0 0.00 0.00 0.00 90 1024.4
20260504205509 63 316 3.5 6.1 0.00 0.00 0.00 89 1023.7
20260504205012 63 284 7.0 10.4 0.00 0.00 0.00 89 1023.7
20260504204512 63 168 1.7 2.6 0.00 0.00 0.00 89 1023.7
20260504204012 63 259 4.3 5.2 0.00 0.00 0.00 89 1023.7
20260504203509 63 168 1.7 3.5 0.00 0.00 0.00 89 1023.7
20260504203021 63 109 3.5 7.0 0.00 0.00 0.00 89 1023.7
20260504202509 63 256 1.7 2.6 0.00 0.00 0.00 88 1023.7
20260504202012 63 287 3.5 5.2 0.00 0.00 0.00 88 1023.4
20260504201512 63 117 3.5 5.2 0.00 0.00 0.00 88 1023.4
20260504201013 63 98 5.2 7.0 0.00 0.00 0.00 88 1023.4
20260504200509 63 31 3.5 3.5 0.00 0.00 0.00 88 1023.4
20260504200030 63 287 1.7 3.5 0.00 0.00 0.00 89 1023.4
20260504195508 63 174 1.7 2.6 0.01 0.00 0.00 89 1023.7
20260504195012 63 177 1.7 2.6 0.01 0.00 0.00 90 1023.7
20260504194512 63 276 7.8 14.8 0.01 0.00 0.00 89 1023.7
20260504194012 63 269 3.5 3.5 0.00 0.00 0.00 89 1023.7
20260504193510 63 161 3.5 4.3 0.00 0.00 0.00 87 1023.4
20260504193024 63 258 3.5 5.2 0.00 0.00 0.00 84 1023.4
20260504192509 63 211 1.7 2.6 0.00 0.00 0.00 82 1023.4
20260504192013 63 226 1.7 3.5 0.00 0.00 0.00 81 1023.7
20260504191512 63 268 3.5 8.7 0.00 0.00 0.00 82 1023.7
20260504191013 63 206 0.9 1.7 0.00 0.00 0.00 85 1023.7
20260504190031 63 354 5.2 7.0 0.00 0.00 0.00 84 1023.7
20260504185509 63 114 0.9 1.7 0.00 0.00 0.00 85 1023.4
20260504185012 63 260 2.6 3.5 0.00 0.00 0.00 84 1023.4
20260504184013 63 194 1.7 1.7 0.00 0.00 0.00 84 1023.4
20260504183508 63 176 1.7 2.6 0.00 0.00 0.00 85 1023.7
20260504183022 63 67 2.6 3.5 0.00 0.00 0.00 85 1023.7
20260504182509 63 180 4.3 12.2 0.00 0.00 0.00 84 1023.7
20260504182013 63 161 1.7 2.6 0.00 0.00 0.00 85 1023.7
20260504181512 63 151 1.7 2.6 0.00 0.00 0.00 85 1023.7
20260504181014 63 274 10.4 20.9 0.00 0.00 0.00 84 1023.7
20260504180031 63 195 4.3 7.8 0.00 0.00 0.00 82 1023.4
20260504175509 63 269 3.5 6.1 0.00 0.00 0.00 83 1023.4
20260504175012 63 90 0.9 0.9 0.00 0.00 0.00 84 1023.4
20260504174512 63 149 2.6 4.3 0.00 0.00 0.00 85 1023.7
20260504174012 63 180 3.5 3.5 0.00 0.00 0.00 85 1023.7
20260504173509 63 233 0.9 3.5 0.00 0.00 0.00 85 1023.7
20260504173021 63 281 3.5 3.5 0.00 0.00 0.00 85 1023.7
20260504172510 63 171 3.5 6.1 0.00 0.00 0.00 85 1023.7
20260504172014 63 115 1.7 2.6 0.00 0.00 0.00 85 1023.7
20260504171512 63 232 0.9 0.9 0.00 0.00 0.00 85 1023.7
20260504171013 63 191 1.7 2.6 0.00 0.00 0.00 84 1023.7
20260504170509 64 276 5.2 5.2 0.00 0.00 0.00 83 1023.7
20260504151014 66 233 3.5 5.2 0.00 0.00 0.00 73 1024.4
20260504150509 66 166 0.9 0.9 0.00 0.00 0.00 73 1024.4
20260504141013 66 165 0.9 1.7 0.00 0.00 0.00 72 1025.1
20260504140509 66 116 3.5 5.2 0.00 0.00 0.00 71 1025.1
20260504130509 64 173 1.7 2.6 0.00 0.00 0.00 76 1025.4
20260504110509 66 156 6.1 9.6 0.00 0.00 0.00 65 1025.7
20260504100508 66 307 5.2 7.8 0.00 0.00 0.00 66 1025.7